owner,sensor,date,latitude,longitude,vertical_datum,sea_water_practical_salinity,qcFlag 
DISL,ioos:station:DISL:CATA:1,2015-04-01T00:00:00Z,30.3085,-88.1395,2.193,13.85,1111122 
DISL,ioos:station:DISL:CATA:1,2015-04-01T00:30:00Z,30.3085,-88.1395,2.211,14.66,1111122 
DISL,ioos:station:DISL:CATA:1,2015-04-01T01:00:00Z,30.3085,-88.1395,2.224,15.61,1111122 
DISL,ioos:station:DISL:CATA:1,2015-04-01T01:30:00Z,30.3085,-88.1395,2.235,16.14,1111122 
DISL,ioos:station:DISL:CATA:1,2015-04-01T02:00:00Z,30.3085,-88.1395,2.247,16.07,1111122 
DISL,ioos:station:DISL:CATA:1,2015-04-01T02:30:00Z,30.3085,-88.1395,2.236,16.0,1111122 
DISL,ioos:station:DISL:CATA:1,2015-04-01T03:00:00Z,30.3085,-88.1395,2.227,15.91,1111122 
DISL,ioos:station:DISL:CATA:1,2015-04-01T03:30:00Z,30.3085,-88.1395,2.223,16.02,1111122 
DISL,ioos:station:DISL:CATA:1,2015-04-01T04:00:00Z,30.3085,-88.1395,2.216,17.13,1111122 
DISL,ioos:station:DISL:CATA:1,2015-04-01T04:30:00Z,30.3085,-88.1395,2.214,17.66,1111122 
DISL,ioos:station:DISL:CATA:1,2015-04-01T05:00:00Z,30.3085,-88.1395,2.185,17.95,1111122 
DISL,ioos:station:DISL:CATA:1,2015-04-01T05:30:00Z,30.3085,-88.1395,2.165,17.81,1111122 
DISL,ioos:station:DISL:CATA:1,2015-04-01T06:00:00Z,30.3085,-88.1395,2.145,18.25,1111122 
DISL,ioos:station:DISL:CATA:1,2015-04-01T06:30:00Z,30.3085,-88.1395,2.13,18.27,1111122 
DISL,ioos:station:DISL:CATA:1,2015-04-01T07:00:00Z,30.3085,-88.1395,2.12,18.23,1111122 
DISL,ioos:station:DISL:CATA:1,2015-04-01T07:30:00Z,30.3085,-88.1395,2.101,18.71,1111122 
DISL,ioos:station:DISL:CATA:1,2015-04-01T08:00:00Z,30.3085,-88.1395,2.09,18.86,1111122 
DISL,ioos:station:DISL:CATA:1,2015-04-01T08:30:00Z,30.3085,-88.1395,2.082,18.87,1111122 
DISL,ioos:station:DISL:CATA:1,2015-04-01T09:00:00Z,30.3085,-88.1395,2.062,18.9,1111122 
DISL,ioos:station:DISL:CATA:1,2015-04-01T09:30:00Z,30.3085,-88.1395,2.062,18.64,1111122 
DISL,ioos:station:DISL:CATA:1,2015-04-01T10:00:00Z,30.3085,-88.1395,2.056,18.56,1111122 
DISL,ioos:station:DISL:CATA:1,2015-04-01T10:30:00Z,30.3085,-88.1395,2.062,17.52,1111122 
DISL,ioos:station:DISL:CATA:1,2015-04-01T11:00:00Z,30.3085,-88.1395,2.044,17.84,1111122 
DISL,ioos:station:DISL:CATA:1,2015-04-01T11:30:00Z,30.3085,-88.1395,2.046,17.67,1111122 
DISL,ioos:station:DISL:CATA:1,2015-04-01T12:00:00Z,30.3085,-88.1395,2.046,17.24,1111122 
DISL,ioos:station:DISL:CATA:1,2015-04-01T12:30:00Z,30.3085,-88.1395,2.044,17.44,1111122 
DISL,ioos:station:DISL:CATA:1,2015-04-01T13:00:00Z,30.3085,-88.1395,2.036,17.39,1111122 
DISL,ioos:station:DISL:CATA:1,2015-04-01T13:30:00Z,30.3085,-88.1395,2.035,17.32,1111122 
DISL,ioos:station:DISL:CATA:1,2015-04-01T14:00:00Z,30.3085,-88.1395,2.036,17.2,1111122 
DISL,ioos:station:DISL:CATA:1,2015-04-01T14:30:00Z,30.3085,-88.1395,2.031,16.56,1111122 
DISL,ioos:station:DISL:CATA:1,2015-04-01T15:00:00Z,30.3085,-88.1395,2.031,15.42,1111122 
DISL,ioos:station:DISL:CATA:1,2015-04-01T15:30:00Z,30.3085,-88.1395,2.047,14.19,1111122 
DISL,ioos:station:DISL:CATA:1,2015-04-01T16:00:00Z,30.3085,-88.1395,2.049,13.23,1111122 
DISL,ioos:station:DISL:CATA:1,2015-04-01T16:30:00Z,30.3085,-88.1395,2.06,11.88,1111122 
DISL,ioos:station:DISL:CATA:1,2015-04-01T17:00:00Z,30.3085,-88.1395,2.074,10.58,1111122 
DISL,ioos:station:DISL:CATA:1,2015-04-01T17:30:00Z,30.3085,-88.1395,2.083,10.14,1111122 
DISL,ioos:station:DISL:CATA:1,2015-04-01T18:00:00Z,30.3085,-88.1395,2.092,11.96,1111122 
DISL,ioos:station:DISL:CATA:1,2015-04-01T18:30:00Z,30.3085,-88.1395,2.096,14.68,1111122 
DISL,ioos:station:DISL:CATA:1,2015-04-01T19:00:00Z,30.3085,-88.1395,2.093,13.17,1111122 
DISL,ioos:station:DISL:CATA:1,2015-04-01T19:30:00Z,30.3085,-88.1395,2.09,10.77,1111122 
DISL,ioos:station:DISL:CATA:1,2015-04-01T20:00:00Z,30.3085,-88.1395,2.077,11.42,1111122 
DISL,ioos:station:DISL:CATA:1,2015-04-01T20:30:00Z,30.3085,-88.1395,2.075,10.97,1111122 
DISL,ioos:station:DISL:CATA:1,2015-04-01T21:00:00Z,30.3085,-88.1395,2.066,14.52,1111122 
DISL,ioos:station:DISL:CATA:1,2015-04-01T21:30:00Z,30.3085,-88.1395,2.062,14.98,1111122 
DISL,ioos:station:DISL:CATA:1,2015-04-01T22:00:00Z,30.3085,-88.1395,2.074,12.14,1111122 
DISL,ioos:station:DISL:CATA:1,2015-04-01T22:30:00Z,30.3085,-88.1395,2.1,10.76,1111122 
DISL,ioos:station:DISL:CATA:1,2015-04-01T23:00:00Z,30.3085,-88.1395,2.128,10.62,1111122 
DISL,ioos:station:DISL:CATA:1,2015-04-01T23:30:00Z,30.3085,-88.1395,2.135,11.11,1111122 
DISL,ioos:station:DISL:CATA:1,2015-04-02T00:00:00Z,30.3085,-88.1395,2.158,11.47,1111122 
DISL,ioos:station:DISL:CATA:1,2015-04-02T00:30:00Z,30.3085,-88.1395,2.177,11.59,1111122 
DISL,ioos:station:DISL:CATA:1,2015-04-02T01:00:00Z,30.3085,-88.1395,2.181,10.29,1111122 
DISL,ioos:station:DISL:CATA:1,2015-04-02T01:30:00Z,30.3085,-88.1395,2.178,10.49,1111122 
DISL,ioos:station:DISL:CATA:1,2015-04-02T02:00:00Z,30.3085,-88.1395,2.173,10.69,1111122 
DISL,ioos:station:DISL:CATA:1,2015-04-02T02:30:00Z,30.3085,-88.1395,2.171,10.58,1111122 
DISL,ioos:station:DISL:CATA:1,2015-04-02T03:00:00Z,30.3085,-88.1395,2.183,10.61,1111122 
DISL,ioos:station:DISL:CATA:1,2015-04-02T03:30:00Z,30.3085,-88.1395,2.181,11.15,1111122 
DISL,ioos:station:DISL:CATA:1,2015-04-02T04:00:00Z,30.3085,-88.1395,2.182,11.51,1111122 
DISL,ioos:station:DISL:CATA:1,2015-04-02T04:30:00Z,30.3085,-88.1395,2.185,11.75,1111122 
DISL,ioos:station:DISL:CATA:1,2015-04-02T05:00:00Z,30.3085,-88.1395,2.186,11.84,1111122 
DISL,ioos:station:DISL:CATA:1,2015-04-02T05:30:00Z,30.3085,-88.1395,2.188,11.95,1111122 
DISL,ioos:station:DISL:CATA:1,2015-04-02T06:00:00Z,30.3085,-88.1395,2.194,11.92,1111122 
DISL,ioos:station:DISL:CATA:1,2015-04-02T06:30:00Z,30.3085,-88.1395,2.171,11.89,1111122 
DISL,ioos:station:DISL:CATA:1,2015-04-02T07:00:00Z,30.3085,-88.1395,2.152,12.0,1111122 
DISL,ioos:station:DISL:CATA:1,2015-04-02T07:30:00Z,30.3085,-88.1395,2.146,11.99,1111122 
DISL,ioos:station:DISL:CATA:1,2015-04-02T08:00:00Z,30.3085,-88.1395,2.119,11.3,1111122 
DISL,ioos:station:DISL:CATA:1,2015-04-02T08:30:00Z,30.3085,-88.1395,2.114,11.08,1111122 
DISL,ioos:station:DISL:CATA:1,2015-04-02T09:00:00Z,30.3085,-88.1395,2.105,10.68,1111122 
DISL,ioos:station:DISL:CATA:1,2015-04-02T09:30:00Z,30.3085,-88.1395,2.1,10.58,1111122 
DISL,ioos:station:DISL:CATA:1,2015-04-02T10:00:00Z,30.3085,-88.1395,2.087,10.76,1111122 
DISL,ioos:station:DISL:CATA:1,2015-04-02T10:30:00Z,30.3085,-88.1395,2.084,10.93,1111122 
DISL,ioos:station:DISL:CATA:1,2015-04-02T11:00:00Z,30.3085,-88.1395,2.066,10.54,1111122 
DISL,ioos:station:DISL:CATA:1,2015-04-02T11:30:00Z,30.3085,-88.1395,2.082,10.35,1111122 
DISL,ioos:station:DISL:CATA:1,2015-04-02T12:00:00Z,30.3085,-88.1395,2.093,9.96,1111122 
DISL,ioos:station:DISL:CATA:1,2015-04-02T12:30:00Z,30.3085,-88.1395,2.109,9.63,1111122 
DISL,ioos:station:DISL:CATA:1,2015-04-02T13:00:00Z,30.3085,-88.1395,2.125,9.44,1111122 
DISL,ioos:station:DISL:CATA:1,2015-04-02T13:30:00Z,30.3085,-88.1395,2.135,9.45,1111122 
DISL,ioos:station:DISL:CATA:1,2015-04-02T14:00:00Z,30.3085,-88.1395,2.147,9.41,1111122 
DISL,ioos:station:DISL:CATA:1,2015-04-02T14:30:00Z,30.3085,-88.1395,2.143,9.42,1111122 
DISL,ioos:station:DISL:CATA:1,2015-04-02T15:00:00Z,30.3085,-88.1395,2.139,9.61,1111122 
DISL,ioos:station:DISL:CATA:1,2015-04-02T15:30:00Z,30.3085,-88.1395,2.15,9.6,1111122 
DISL,ioos:station:DISL:CATA:1,2015-04-02T16:00:00Z,30.3085,-88.1395,2.161,9.76,1111122 
DISL,ioos:station:DISL:CATA:1,2015-04-02T16:30:00Z,30.3085,-88.1395,2.174,9.9,1111122 
DISL,ioos:station:DISL:CATA:1,2015-04-02T17:00:00Z,30.3085,-88.1395,2.198,10.24,1111122 
DISL,ioos:station:DISL:CATA:1,2015-04-02T17:30:00Z,30.3085,-88.1395,2.197,10.57,1111122 
DISL,ioos:station:DISL:CATA:1,2015-04-02T18:00:00Z,30.3085,-88.1395,2.189,10.68,1111122 
DISL,ioos:station:DISL:CATA:1,2015-04-02T18:30:00Z,30.3085,-88.1395,2.19,10.73,1111122 
DISL,ioos:station:DISL:CATA:1,2015-04-02T19:00:00Z,30.3085,-88.1395,2.186,10.7,1111122 
DISL,ioos:station:DISL:CATA:1,2015-04-02T19:30:00Z,30.3085,-88.1395,2.169,10.81,1111122 
DISL,ioos:station:DISL:CATA:1,2015-04-02T20:00:00Z,30.3085,-88.1395,2.151,10.63,1111122 
DISL,ioos:station:DISL:CATA:1,2015-04-02T20:30:00Z,30.3085,-88.1395,2.138,10.49,1111122 
DISL,ioos:station:DISL:CATA:1,2015-04-02T21:00:00Z,30.3085,-88.1395,2.12,11.06,1111122 
DISL,ioos:station:DISL:CATA:1,2015-04-02T21:30:00Z,30.3085,-88.1395,2.096,10.93,1111122 
DISL,ioos:station:DISL:CATA:1,2015-04-02T22:00:00Z,30.3085,-88.1395,2.073,10.04,1111122 
DISL,ioos:station:DISL:CATA:1,2015-04-02T22:30:00Z,30.3085,-88.1395,2.073,9.96,1111122 
DISL,ioos:station:DISL:CATA:1,2015-04-02T23:00:00Z,30.3085,-88.1395,2.07,10.04,1111122 
DISL,ioos:station:DISL:CATA:1,2015-04-02T23:30:00Z,30.3085,-88.1395,2.077,10.15,1111122 
DISL,ioos:station:DISL:CATA:1,2015-04-03T00:00:00Z,30.3085,-88.1395,2.095,10.06,1111122 
DISL,ioos:station:DISL:CATA:1,2015-04-03T00:30:00Z,30.3085,-88.1395,2.115,9.64,1111122 
DISL,ioos:station:DISL:CATA:1,2015-04-03T01:00:00Z,30.3085,-88.1395,2.135,9.17,1111122 
DISL,ioos:station:DISL:CATA:1,2015-04-03T01:30:00Z,30.3085,-88.1395,2.149,8.99,1111122 
DISL,ioos:station:DISL:CATA:1,2015-04-03T02:00:00Z,30.3085,-88.1395,2.157,8.84,1111122 
DISL,ioos:station:DISL:CATA:1,2015-04-03T02:30:00Z,30.3085,-88.1395,2.158,8.82,1111122 
DISL,ioos:station:DISL:CATA:1,2015-04-03T03:00:00Z,30.3085,-88.1395,2.16,8.94,1111122 
DISL,ioos:station:DISL:CATA:1,2015-04-03T03:30:00Z,30.3085,-88.1395,2.163,9.24,1111122 
DISL,ioos:station:DISL:CATA:1,2015-04-03T04:00:00Z,30.3085,-88.1395,2.173,9.28,1111122 
DISL,ioos:station:DISL:CATA:1,2015-04-03T04:30:00Z,30.3085,-88.1395,2.17,9.12,1111122 
DISL,ioos:station:DISL:CATA:1,2015-04-03T05:00:00Z,30.3085,-88.1395,2.185,9.21,1111122 
DISL,ioos:station:DISL:CATA:1,2015-04-03T05:30:00Z,30.3085,-88.1395,2.195,9.37,1111122 
DISL,ioos:station:DISL:CATA:1,2015-04-03T06:00:00Z,30.3085,-88.1395,2.203,9.32,1111122 
DISL,ioos:station:DISL:CATA:1,2015-04-03T06:30:00Z,30.3085,-88.1395,2.2,9.29,1111122 
DISL,ioos:station:DISL:CATA:1,2015-04-03T07:00:00Z,30.3085,-88.1395,2.188,9.27,1111122 
DISL,ioos:station:DISL:CATA:1,2015-04-03T07:30:00Z,30.3085,-88.1395,2.163,9.27,1111122 
DISL,ioos:station:DISL:CATA:1,2015-04-03T08:00:00Z,30.3085,-88.1395,2.157,9.16,1111122 
DISL,ioos:station:DISL:CATA:1,2015-04-03T08:30:00Z,30.3085,-88.1395,2.144,9.02,1111122 
DISL,ioos:station:DISL:CATA:1,2015-04-03T09:00:00Z,30.3085,-88.1395,2.139,9.01,1111122 
DISL,ioos:station:DISL:CATA:1,2015-04-03T09:30:00Z,30.3085,-88.1395,2.142,8.96,1111122 
DISL,ioos:station:DISL:CATA:1,2015-04-03T10:00:00Z,30.3085,-88.1395,2.131,8.9,1111122 
DISL,ioos:station:DISL:CATA:1,2015-04-03T10:30:00Z,30.3085,-88.1395,2.128,8.75,1111122 
DISL,ioos:station:DISL:CATA:1,2015-04-03T11:00:00Z,30.3085,-88.1395,2.117,8.63,1111122 
DISL,ioos:station:DISL:CATA:1,2015-04-03T11:30:00Z,30.3085,-88.1395,2.106,8.59,1111122 
DISL,ioos:station:DISL:CATA:1,2015-04-03T12:00:00Z,30.3085,-88.1395,2.108,8.51,1111122 
DISL,ioos:station:DISL:CATA:1,2015-04-03T12:30:00Z,30.3085,-88.1395,2.111,8.42,1111122 
DISL,ioos:station:DISL:CATA:1,2015-04-03T13:00:00Z,30.3085,-88.1395,2.134,8.44,1111122 
DISL,ioos:station:DISL:CATA:1,2015-04-03T13:30:00Z,30.3085,-88.1395,2.159,8.49,1111122 
DISL,ioos:station:DISL:CATA:1,2015-04-03T14:00:00Z,30.3085,-88.1395,2.171,8.51,1111122 
DISL,ioos:station:DISL:CATA:1,2015-04-03T14:30:00Z,30.3085,-88.1395,2.171,8.48,1111122 
DISL,ioos:station:DISL:CATA:1,2015-04-03T15:00:00Z,30.3085,-88.1395,2.17,8.47,1111122 
DISL,ioos:station:DISL:CATA:1,2015-04-03T15:30:00Z,30.3085,-88.1395,2.174,8.49,1111122 
DISL,ioos:station:DISL:CATA:1,2015-04-03T16:00:00Z,30.3085,-88.1395,2.183,8.5,1111122 
DISL,ioos:station:DISL:CATA:1,2015-04-03T16:30:00Z,30.3085,-88.1395,2.179,8.49,1111122 
DISL,ioos:station:DISL:CATA:1,2015-04-03T17:00:00Z,30.3085,-88.1395,2.183,8.46,1111122 
DISL,ioos:station:DISL:CATA:1,2015-04-03T17:30:00Z,30.3085,-88.1395,2.203,8.45,1111122 
DISL,ioos:station:DISL:CATA:1,2015-04-03T18:00:00Z,30.3085,-88.1395,2.206,8.47,1111122 
DISL,ioos:station:DISL:CATA:1,2015-04-03T18:30:00Z,30.3085,-88.1395,2.203,8.58,1111122 
DISL,ioos:station:DISL:CATA:1,2015-04-03T19:00:00Z,30.3085,-88.1395,2.189,8.69,1111122 
DISL,ioos:station:DISL:CATA:1,2015-04-03T19:30:00Z,30.3085,-88.1395,2.176,8.83,1111122 
DISL,ioos:station:DISL:CATA:1,2015-04-03T20:00:00Z,30.3085,-88.1395,2.16,8.96,1111122 
DISL,ioos:station:DISL:CATA:1,2015-04-03T20:30:00Z,30.3085,-88.1395,2.14,9.05,1111122 
DISL,ioos:station:DISL:CATA:1,2015-04-03T21:00:00Z,30.3085,-88.1395,2.14,8.83,1111122 
DISL,ioos:station:DISL:CATA:1,2015-04-03T21:30:00Z,30.3085,-88.1395,2.127,8.57,1111122 
DISL,ioos:station:DISL:CATA:1,2015-04-03T22:00:00Z,30.3085,-88.1395,2.121,8.51,1111122 
DISL,ioos:station:DISL:CATA:1,2015-04-03T22:30:00Z,30.3085,-88.1395,2.108,8.36,1111122 
DISL,ioos:station:DISL:CATA:1,2015-04-03T23:00:00Z,30.3085,-88.1395,2.105,8.48,1111122 
DISL,ioos:station:DISL:CATA:1,2015-04-03T23:30:00Z,30.3085,-88.1395,2.095,8.57,1111122 
DISL,ioos:station:DISL:CATA:1,2015-04-04T00:00:00Z,30.3085,-88.1395,2.105,8.58,1111122 
DISL,ioos:station:DISL:CATA:1,2015-04-04T00:30:00Z,30.3085,-88.1395,2.116,8.51,1111122 
DISL,ioos:station:DISL:CATA:1,2015-04-04T01:00:00Z,30.3085,-88.1395,2.128,8.43,1111122 
DISL,ioos:station:DISL:CATA:1,2015-04-04T01:30:00Z,30.3085,-88.1395,2.133,8.9,1111122 
DISL,ioos:station:DISL:CATA:1,2015-04-04T02:00:00Z,30.3085,-88.1395,2.142,8.91,1111122 
DISL,ioos:station:DISL:CATA:1,2015-04-04T02:30:00Z,30.3085,-88.1395,2.147,8.7,1111122 
DISL,ioos:station:DISL:CATA:1,2015-04-04T03:00:00Z,30.3085,-88.1395,2.155,8.5,1111122 
DISL,ioos:station:DISL:CATA:1,2015-04-04T03:30:00Z,30.3085,-88.1395,2.162,8.52,1111122 
DISL,ioos:station:DISL:CATA:1,2015-04-04T04:00:00Z,30.3085,-88.1395,2.179,8.66,1111122 
DISL,ioos:station:DISL:CATA:1,2015-04-04T04:30:00Z,30.3085,-88.1395,2.182,8.45,1111122 
DISL,ioos:station:DISL:CATA:1,2015-04-04T05:00:00Z,30.3085,-88.1395,2.205,8.71,1111122 
DISL,ioos:station:DISL:CATA:1,2015-04-04T05:30:00Z,30.3085,-88.1395,2.216,9.33,1111122 
DISL,ioos:station:DISL:CATA:1,2015-04-04T06:00:00Z,30.3085,-88.1395,2.209,9.8,1111122 
DISL,ioos:station:DISL:CATA:1,2015-04-04T06:30:00Z,30.3085,-88.1395,2.206,10.0,1111122 
DISL,ioos:station:DISL:CATA:1,2015-04-04T07:00:00Z,30.3085,-88.1395,2.205,9.96,1111122 
DISL,ioos:station:DISL:CATA:1,2015-04-04T07:30:00Z,30.3085,-88.1395,2.189,10.08,1111122 
DISL,ioos:station:DISL:CATA:1,2015-04-04T08:00:00Z,30.3085,-88.1395,2.183,10.06,1111122 
DISL,ioos:station:DISL:CATA:1,2015-04-04T08:30:00Z,30.3085,-88.1395,2.166,10.02,1111122 
DISL,ioos:station:DISL:CATA:1,2015-04-04T09:00:00Z,30.3085,-88.1395,2.16,10.24,1111122 
DISL,ioos:station:DISL:CATA:1,2015-04-04T09:30:00Z,30.3085,-88.1395,2.158,10.48,1111122 
DISL,ioos:station:DISL:CATA:1,2015-04-04T10:00:00Z,30.3085,-88.1395,2.156,10.81,1111122 
DISL,ioos:station:DISL:CATA:1,2015-04-04T10:30:00Z,30.3085,-88.1395,2.149,12.24,1111122 
DISL,ioos:station:DISL:CATA:1,2015-04-04T11:00:00Z,30.3085,-88.1395,2.145,14.39,1111122 
DISL,ioos:station:DISL:CATA:1,2015-04-04T11:30:00Z,30.3085,-88.1395,2.139,14.74,1111122 
DISL,ioos:station:DISL:CATA:1,2015-04-04T12:00:00Z,30.3085,-88.1395,2.154,15.48,1111122 
DISL,ioos:station:DISL:CATA:1,2015-04-04T12:30:00Z,30.3085,-88.1395,2.163,15.96,1111122 
DISL,ioos:station:DISL:CATA:1,2015-04-04T13:00:00Z,30.3085,-88.1395,2.183,17.01,1111122 
DISL,ioos:station:DISL:CATA:1,2015-04-04T13:30:00Z,30.3085,-88.1395,2.201,15.86,1111122 
DISL,ioos:station:DISL:CATA:1,2015-04-04T14:00:00Z,30.3085,-88.1395,2.138,12.03,1111122 
DISL,ioos:station:DISL:CATA:1,2015-04-04T14:30:00Z,30.3085,-88.1395,2.092,10.35,1111122 
DISL,ioos:station:DISL:CATA:1,2015-04-04T15:00:00Z,30.3085,-88.1395,2.096,9.94,1111122 
DISL,ioos:station:DISL:CATA:1,2015-04-04T15:30:00Z,30.3085,-88.1395,2.096,10.4,1111122 
DISL,ioos:station:DISL:CATA:1,2015-04-04T16:00:00Z,30.3085,-88.1395,2.08,10.38,1111122 
DISL,ioos:station:DISL:CATA:1,2015-04-04T16:30:00Z,30.3085,-88.1395,2.018,10.02,1111122 
DISL,ioos:station:DISL:CATA:1,2015-04-04T17:00:00Z,30.3085,-88.1395,2.015,10.03,1111122 
DISL,ioos:station:DISL:CATA:1,2015-04-04T17:30:00Z,30.3085,-88.1395,1.999,10.06,1111122 
DISL,ioos:station:DISL:CATA:1,2015-04-04T18:00:00Z,30.3085,-88.1395,2.011,10.01,1111122 
DISL,ioos:station:DISL:CATA:1,2015-04-04T18:30:00Z,30.3085,-88.1395,2.011,9.81,1111122 
DISL,ioos:station:DISL:CATA:1,2015-04-04T19:00:00Z,30.3085,-88.1395,2.032,9.69,1111122 
DISL,ioos:station:DISL:CATA:1,2015-04-04T19:30:00Z,30.3085,-88.1395,2.054,9.46,1111122 
DISL,ioos:station:DISL:CATA:1,2015-04-04T20:00:00Z,30.3085,-88.1395,2.055,9.37,1111122 
DISL,ioos:station:DISL:CATA:1,2015-04-04T20:30:00Z,30.3085,-88.1395,2.039,9.36,1111122 
DISL,ioos:station:DISL:CATA:1,2015-04-04T21:00:00Z,30.3085,-88.1395,2.032,9.18,1111122 
DISL,ioos:station:DISL:CATA:1,2015-04-04T21:30:00Z,30.3085,-88.1395,2.014,9.25,1111122 
DISL,ioos:station:DISL:CATA:1,2015-04-04T22:00:00Z,30.3085,-88.1395,1.974,9.26,1111122 
DISL,ioos:station:DISL:CATA:1,2015-04-04T22:30:00Z,30.3085,-88.1395,1.945,9.29,1111122 
DISL,ioos:station:DISL:CATA:1,2015-04-04T23:00:00Z,30.3085,-88.1395,1.933,9.22,1111122 
DISL,ioos:station:DISL:CATA:1,2015-04-04T23:30:00Z,30.3085,-88.1395,1.927,9.07,1111122 
DISL,ioos:station:DISL:CATA:1,2015-04-05T00:00:00Z,30.3085,-88.1395,1.915,9.02,1111122 
DISL,ioos:station:DISL:CATA:1,2015-04-05T00:30:00Z,30.3085,-88.1395,1.939,9.04,1111122 
DISL,ioos:station:DISL:CATA:1,2015-04-05T01:00:00Z,30.3085,-88.1395,1.946,9.06,1111122 
DISL,ioos:station:DISL:CATA:1,2015-04-05T01:30:00Z,30.3085,-88.1395,1.945,9.08,1111122 
DISL,ioos:station:DISL:CATA:1,2015-04-05T02:00:00Z,30.3085,-88.1395,1.971,9.07,1111122 
DISL,ioos:station:DISL:CATA:1,2015-04-05T02:30:00Z,30.3085,-88.1395,1.981,9.05,1111122 
DISL,ioos:station:DISL:CATA:1,2015-04-05T03:00:00Z,30.3085,-88.1395,1.992,9.02,1111122 
DISL,ioos:station:DISL:CATA:1,2015-04-05T03:30:00Z,30.3085,-88.1395,1.993,9.0,1111122 
DISL,ioos:station:DISL:CATA:1,2015-04-05T04:00:00Z,30.3085,-88.1395,1.999,8.95,1111122 
DISL,ioos:station:DISL:CATA:1,2015-04-05T04:30:00Z,30.3085,-88.1395,2.006,8.79,1111122 
DISL,ioos:station:DISL:CATA:1,2015-04-05T05:00:00Z,30.3085,-88.1395,2.011,8.98,1111122 
DISL,ioos:station:DISL:CATA:1,2015-04-05T05:30:00Z,30.3085,-88.1395,1.998,9.11,1111122 
DISL,ioos:station:DISL:CATA:1,2015-04-05T06:00:00Z,30.3085,-88.1395,1.991,9.37,1111122 
DISL,ioos:station:DISL:CATA:1,2015-04-05T06:30:00Z,30.3085,-88.1395,2.0,9.48,1111122 
DISL,ioos:station:DISL:CATA:1,2015-04-05T07:00:00Z,30.3085,-88.1395,2.006,9.26,1111122 
DISL,ioos:station:DISL:CATA:1,2015-04-05T07:30:00Z,30.3085,-88.1395,2.028,8.96,1111122 
DISL,ioos:station:DISL:CATA:1,2015-04-05T08:00:00Z,30.3085,-88.1395,2.044,8.88,1111122 
DISL,ioos:station:DISL:CATA:1,2015-04-05T08:30:00Z,30.3085,-88.1395,2.059,9.06,1111122 
DISL,ioos:station:DISL:CATA:1,2015-04-05T09:00:00Z,30.3085,-88.1395,2.073,8.8,1111122 
DISL,ioos:station:DISL:CATA:1,2015-04-05T09:30:00Z,30.3085,-88.1395,2.091,8.7,1111122 
DISL,ioos:station:DISL:CATA:1,2015-04-05T10:00:00Z,30.3085,-88.1395,2.097,8.73,1111122 
DISL,ioos:station:DISL:CATA:1,2015-04-05T10:30:00Z,30.3085,-88.1395,2.109,8.56,1111122 
DISL,ioos:station:DISL:CATA:1,2015-04-05T11:00:00Z,30.3085,-88.1395,2.116,8.45,1111122 
DISL,ioos:station:DISL:CATA:1,2015-04-05T11:30:00Z,30.3085,-88.1395,2.126,8.61,1111122 
DISL,ioos:station:DISL:CATA:1,2015-04-05T12:00:00Z,30.3085,-88.1395,2.138,8.38,1111122 
DISL,ioos:station:DISL:CATA:1,2015-04-05T12:30:00Z,30.3085,-88.1395,2.157,8.29,1111122 
DISL,ioos:station:DISL:CATA:1,2015-04-05T13:00:00Z,30.3085,-88.1395,2.178,8.23,1111122 
DISL,ioos:station:DISL:CATA:1,2015-04-05T13:30:00Z,30.3085,-88.1395,2.206,8.2,1111122 
DISL,ioos:station:DISL:CATA:1,2015-04-05T14:00:00Z,30.3085,-88.1395,2.227,8.19,1111122 
DISL,ioos:station:DISL:CATA:1,2015-04-05T14:30:00Z,30.3085,-88.1395,2.248,8.36,1111122 
DISL,ioos:station:DISL:CATA:1,2015-04-05T15:00:00Z,30.3085,-88.1395,2.262,8.44,1111122 
DISL,ioos:station:DISL:CATA:1,2015-04-05T15:30:00Z,30.3085,-88.1395,2.277,8.36,1111122 
DISL,ioos:station:DISL:CATA:1,2015-04-05T16:00:00Z,30.3085,-88.1395,2.293,8.25,1111122 
DISL,ioos:station:DISL:CATA:1,2015-04-05T16:30:00Z,30.3085,-88.1395,2.311,8.32,1111122 
DISL,ioos:station:DISL:CATA:1,2015-04-05T17:00:00Z,30.3085,-88.1395,2.318,8.4,1111122 
DISL,ioos:station:DISL:CATA:1,2015-04-05T17:30:00Z,30.3085,-88.1395,2.316,8.48,1111122 
DISL,ioos:station:DISL:CATA:1,2015-04-05T18:00:00Z,30.3085,-88.1395,2.309,8.39,1111122 
DISL,ioos:station:DISL:CATA:1,2015-04-05T18:30:00Z,30.3085,-88.1395,2.31,8.31,1111122 
DISL,ioos:station:DISL:CATA:1,2015-04-05T19:00:00Z,30.3085,-88.1395,2.295,8.2,1111122 
DISL,ioos:station:DISL:CATA:1,2015-04-05T19:30:00Z,30.3085,-88.1395,2.279,8.33,1111122 
DISL,ioos:station:DISL:CATA:1,2015-04-05T20:00:00Z,30.3085,-88.1395,2.266,8.44,1111122 
DISL,ioos:station:DISL:CATA:1,2015-04-05T20:30:00Z,30.3085,-88.1395,2.246,8.54,1111122 
DISL,ioos:station:DISL:CATA:1,2015-04-05T21:00:00Z,30.3085,-88.1395,2.21,8.54,1111122 
DISL,ioos:station:DISL:CATA:1,2015-04-05T21:30:00Z,30.3085,-88.1395,2.164,8.39,1111122 
DISL,ioos:station:DISL:CATA:1,2015-04-05T22:00:00Z,30.3085,-88.1395,2.13,8.42,1111122 
DISL,ioos:station:DISL:CATA:1,2015-04-05T22:30:00Z,30.3085,-88.1395,2.094,8.31,1111122 
DISL,ioos:station:DISL:CATA:1,2015-04-05T23:00:00Z,30.3085,-88.1395,2.06,8.18,1111122 
DISL,ioos:station:DISL:CATA:1,2015-04-05T23:30:00Z,30.3085,-88.1395,2.032,8.09,1111122 
DISL,ioos:station:DISL:CATA:1,2015-04-06T00:00:00Z,30.3085,-88.1395,2.011,8.01,1111122 
DISL,ioos:station:DISL:CATA:1,2015-04-06T00:30:00Z,30.3085,-88.1395,2.009,8.0,1111122 
DISL,ioos:station:DISL:CATA:1,2015-04-06T01:00:00Z,30.3085,-88.1395,2.01,7.97,1111122 
DISL,ioos:station:DISL:CATA:1,2015-04-06T01:30:00Z,30.3085,-88.1395,2.008,7.96,1111122 
DISL,ioos:station:DISL:CATA:1,2015-04-06T02:00:00Z,30.3085,-88.1395,2.018,7.95,1111122 
DISL,ioos:station:DISL:CATA:1,2015-04-06T02:30:00Z,30.3085,-88.1395,2.03,7.93,1111122 
DISL,ioos:station:DISL:CATA:1,2015-04-06T03:00:00Z,30.3085,-88.1395,2.028,8.05,1111122 
DISL,ioos:station:DISL:CATA:1,2015-04-06T03:30:00Z,30.3085,-88.1395,2.02,9.0,1111122 
DISL,ioos:station:DISL:CATA:1,2015-04-06T04:00:00Z,30.3085,-88.1395,2.012,8.94,1111122 
DISL,ioos:station:DISL:CATA:1,2015-04-06T04:30:00Z,30.3085,-88.1395,2.014,9.07,1111122 
DISL,ioos:station:DISL:CATA:1,2015-04-06T05:00:00Z,30.3085,-88.1395,2.01,9.56,1111122 
DISL,ioos:station:DISL:CATA:1,2015-04-06T05:30:00Z,30.3085,-88.1395,2.042,9.82,1111122 
DISL,ioos:station:DISL:CATA:1,2015-04-06T06:00:00Z,30.3085,-88.1395,2.106,9.95,1111122 
DISL,ioos:station:DISL:CATA:1,2015-04-06T06:30:00Z,30.3085,-88.1395,2.129,9.9,1111122 
DISL,ioos:station:DISL:CATA:1,2015-04-06T07:00:00Z,30.3085,-88.1395,2.126,9.84,1111122 
DISL,ioos:station:DISL:CATA:1,2015-04-06T07:30:00Z,30.3085,-88.1395,2.134,9.77,1111122 
DISL,ioos:station:DISL:CATA:1,2015-04-06T08:00:00Z,30.3085,-88.1395,2.181,9.64,1111122 
DISL,ioos:station:DISL:CATA:1,2015-04-06T08:30:00Z,30.3085,-88.1395,2.188,9.85,1111122 
DISL,ioos:station:DISL:CATA:1,2015-04-06T09:00:00Z,30.3085,-88.1395,2.199,9.43,1111122 
DISL,ioos:station:DISL:CATA:1,2015-04-06T09:30:00Z,30.3085,-88.1395,2.183,9.06,1111122 
DISL,ioos:station:DISL:CATA:1,2015-04-06T10:00:00Z,30.3085,-88.1395,2.18,9.0,1111122 
DISL,ioos:station:DISL:CATA:1,2015-04-06T10:30:00Z,30.3085,-88.1395,2.187,8.74,1111122 
DISL,ioos:station:DISL:CATA:1,2015-04-06T11:00:00Z,30.3085,-88.1395,2.181,8.78,1111122 
DISL,ioos:station:DISL:CATA:1,2015-04-06T11:30:00Z,30.3085,-88.1395,2.184,8.73,1111122 
DISL,ioos:station:DISL:CATA:1,2015-04-06T12:00:00Z,30.3085,-88.1395,2.186,8.92,1111122 
DISL,ioos:station:DISL:CATA:1,2015-04-06T12:30:00Z,30.3085,-88.1395,2.213,8.89,1111122 
DISL,ioos:station:DISL:CATA:1,2015-04-06T13:00:00Z,30.3085,-88.1395,2.245,8.9,1111122 
DISL,ioos:station:DISL:CATA:1,2015-04-06T13:30:00Z,30.3085,-88.1395,2.271,9.03,1111122 
DISL,ioos:station:DISL:CATA:1,2015-04-06T14:00:00Z,30.3085,-88.1395,2.297,9.53,1111122 
DISL,ioos:station:DISL:CATA:1,2015-04-06T14:30:00Z,30.3085,-88.1395,2.297,9.75,1111122 
DISL,ioos:station:DISL:CATA:1,2015-04-06T15:00:00Z,30.3085,-88.1395,2.321,9.77,1111122 